QTRB8K LTFM-LROP

Flight info

Callsign QTRB8K
Flight time 0h 54m
Altitude 26000
Route IBLAX1D/35L IBLAX P727 BGS L622 GONGO DCT KOMAN DCT OBUGA
Aircraft A320/M-SDE3FGHIRWY/LB1

Departure

Time 2026-05-06 11:41
Airport İstanbul Airport (LTFM)

Arrival

Time 2026-05-06 12:35
Airport Bucharest Henri Coandă International Airport (LROP)
Time Latitude Longitude Altitude Speed Heading
2026-05-06 11:11 41.26770 28.73529 334 ft 0 kts 178°
2026-05-06 11:30 41.26774 28.73529 330 ft 2 kts 178°
2026-05-06 11:30 41.26791 28.73529 330 ft 2 kts 178°
2026-05-06 11:30 41.26808 28.73528 333 ft 2 kts 178°
2026-05-06 11:31 41.26825 28.73527 330 ft 2 kts 178°
2026-05-06 11:31 41.26842 28.73526 329 ft 2 kts 178°
2026-05-06 11:31 41.26859 28.73529 329 ft 3 kts 211°
2026-05-06 11:31 41.26872 28.73544 329 ft 2 kts 247°
2026-05-06 11:32 41.26875 28.73554 329 ft 0 kts 262°
2026-05-06 11:35 41.26875 28.73551 332 ft 1 kts 262°
2026-05-06 11:36 41.26872 28.73523 332 ft 5 kts 262°
2026-05-06 11:36 41.26868 28.73467 332 ft 8 kts 266°
2026-05-06 11:36 41.26869 28.73399 331 ft 6 kts 272°
2026-05-06 11:36 41.26871 28.73328 334 ft 9 kts 272°
2026-05-06 11:37 41.26867 28.73234 334 ft 11 kts 268°
2026-05-06 11:37 41.26864 28.73117 334 ft 14 kts 268°
2026-05-06 11:37 41.26839 28.73013 332 ft 8 kts 199°
2026-05-06 11:37 41.26786 28.72995 333 ft 0 kts 195°
2026-05-06 11:38 41.26784 28.72994 334 ft 0 kts 195°
2026-05-06 11:38 41.26780 28.72993 334 ft 2 kts 195°
2026-05-06 11:38 41.26756 28.72984 330 ft 5 kts 195°
2026-05-06 11:38 41.26724 28.72950 334 ft 7 kts 238°
2026-05-06 11:39 41.26714 28.72855 334 ft 13 kts 265°
2026-05-06 11:39 41.26708 28.72725 334 ft 15 kts 271°
2026-05-06 11:39 41.26712 28.72583 334 ft 14 kts 277°
2026-05-06 11:39 41.26772 28.72512 330 ft 0 kts 354°
2026-05-06 11:40 41.26782 28.72511 332 ft 3 kts 355°
2026-05-06 11:40 41.26804 28.72509 334 ft 22 kts 356°
2026-05-06 11:40 41.27210 28.72502 333 ft 90 kts 358°
2026-05-06 11:40 41.28010 28.72497 330 ft 138 kts 352°
2026-05-06 11:41 41.29027 28.72397 741 ft 147 kts
2026-05-06 11:41 41.30058 28.72374 1416 ft 150 kts
2026-05-06 11:41 41.31147 28.72388 1961 ft 164 kts
2026-05-06 11:41 41.32348 28.72417 2505 ft 181 kts 359°
2026-05-06 11:42 41.33664 28.72443 3087 ft 196 kts 359°
2026-05-06 11:42 41.35099 28.72470 3547 ft 216 kts 359°
2026-05-06 11:42 41.36585 28.72496 4538 ft 208 kts 359°
2026-05-06 11:42 41.38014 28.72462 5528 ft 203 kts 349°
2026-05-06 11:43 41.39328 28.71862 6378 ft 203 kts 334°
2026-05-06 11:43 41.40609 28.71034 7148 ft 206 kts 335°
2026-05-06 11:43 41.41904 28.70202 7929 ft 208 kts 335°
2026-05-06 11:44 41.44536 28.68516 9548 ft 212 kts 335°
2026-05-06 11:44 41.45871 28.67660 10318 ft 214 kts 335°
2026-05-06 11:44 41.47222 28.66797 11043 ft 216 kts 335°
2026-05-06 11:44 41.48585 28.65925 11781 ft 219 kts 336°
2026-05-06 11:45 41.49966 28.65041 12510 ft 222 kts 336°
2026-05-06 11:45 41.51366 28.64144 13259 ft 224 kts 336°
2026-05-06 11:45 41.52783 28.63236 14003 ft 227 kts 336°
2026-05-06 11:45 41.54216 28.62320 14674 ft 230 kts 336°
2026-05-06 11:46 41.55663 28.61394 15370 ft 232 kts 335°
2026-05-06 11:46 41.57059 28.60297 16061 ft 235 kts 327°
2026-05-06 11:46 41.58345 28.58934 16743 ft 238 kts 320°
2026-05-06 11:46 41.59503 28.57326 17432 ft 241 kts 315°
2026-05-06 11:47 41.60637 28.55657 18107 ft 244 kts 315°
2026-05-06 11:47 41.61785 28.53974 18725 ft 246 kts 315°
2026-05-06 11:47 41.62942 28.52279 19306 ft 248 kts 315°
2026-05-06 11:47 41.64109 28.50566 19881 ft 250 kts 315°
2026-05-06 11:48 41.65288 28.48837 20452 ft 252 kts 316°
2026-05-06 11:48 41.66576 28.47237 21005 ft 254 kts 323°
2026-05-06 11:48 41.68016 28.45857 21540 ft 256 kts 329°
2026-05-06 11:48 41.69591 28.44724 22066 ft 258 kts 336°
2026-05-06 11:49 41.70687 28.44101 22404 ft 260 kts 338°
2026-05-06 11:49 41.72928 28.42854 22976 ft 270 kts 337°
2026-05-06 11:49 41.74708 28.41858 23149 ft 285 kts 337°
2026-05-06 11:49 41.76590 28.40803 23306 ft 301 kts 337°
2026-05-06 11:50 41.78572 28.39690 23440 ft 316 kts 337°
2026-05-06 11:50 41.79971 28.38904 23525 ft 327 kts 337°
2026-05-06 11:50 41.82114 28.37699 23669 ft 342 kts 337°
2026-05-06 11:50 41.84325 28.36455 23786 ft 356 kts 337°
2026-05-06 11:51 41.86660 28.35142 23900 ft 371 kts 337°
2026-05-06 11:51 41.89087 28.33777 24015 ft 385 kts 337°
2026-05-06 11:51 41.91597 28.32371 24217 ft 395 kts 337°
2026-05-06 11:51 41.94152 28.30932 24605 ft 399 kts 336°
2026-05-06 11:52 41.96600 28.29189 24987 ft 400 kts 327°
2026-05-06 11:52 41.98786 28.26864 25295 ft 403 kts 317°
2026-05-06 11:52 42.00636 28.24018 25532 ft 405 kts 307°
2026-05-06 11:52 42.02175 28.20943 25771 ft 383 kts 306°
2026-05-06 11:53 42.03609 28.18063 26010 ft 360 kts 306°
2026-05-06 11:53 42.04976 28.15339 26100 ft 345 kts 306°
2026-05-06 11:53 42.06335 28.12650 26117 ft 361 kts 306°
2026-05-06 11:53 42.07784 28.09797 26114 ft 378 kts 306°
2026-05-06 11:54 42.09301 28.06809 26113 ft 394 kts 306°
2026-05-06 11:54 42.10870 28.03707 26113 ft 408 kts 306°
2026-05-06 11:54 42.12479 28.00505 26115 ft 415 kts 306°
2026-05-06 11:54 42.14096 27.97271 26110 ft 416 kts 306°
2026-05-06 11:55 42.15712 27.94031 26112 ft 416 kts 306°
2026-05-06 11:55 42.17328 27.90790 26112 ft 416 kts 306°
2026-05-06 11:55 42.18940 27.87558 26110 ft 415 kts 306°
2026-05-06 11:55 42.20563 27.84334 26106 ft 415 kts 308°
2026-05-06 11:56 42.22442 27.81406 26107 ft 412 kts 317°
2026-05-06 11:56 42.24658 27.78966 26106 ft 411 kts 327°
2026-05-06 11:56 42.27127 27.77033 26104 ft 410 kts 332°
2026-05-06 11:56 42.29649 27.75208 26102 ft 410 kts 332°
2026-05-06 11:57 42.32157 27.73374 26104 ft 410 kts 332°
2026-05-06 11:57 42.34631 27.71552 26108 ft 410 kts 332°
2026-05-06 11:57 42.37136 27.69703 26108 ft 410 kts 332°
2026-05-06 11:57 42.39643 27.67854 26110 ft 410 kts 332°
2026-05-06 11:58 42.42152 27.66010 26111 ft 410 kts 332°
2026-05-06 11:58 42.44663 27.64171 26116 ft 410 kts 332°
2026-05-06 11:58 42.47175 27.62331 26115 ft 410 kts 332°
2026-05-06 11:58 42.49685 27.60485 26119 ft 410 kts 332°
2026-05-06 11:59 42.52192 27.58637 26118 ft 410 kts 332°
2026-05-06 11:59 42.54698 27.56787 26119 ft 410 kts 332°
2026-05-06 11:59 42.57203 27.54932 26118 ft 410 kts 332°
2026-05-06 11:59 42.59639 27.52920 26117 ft 411 kts 325°
2026-05-06 12:00 42.61949 27.50638 26115 ft 411 kts 325°
2026-05-06 12:00 42.64262 27.48358 26115 ft 410 kts 325°
2026-05-06 12:00 42.66544 27.46115 26111 ft 410 kts 325°
2026-05-06 12:00 42.68859 27.43844 26108 ft 410 kts 325°
2026-05-06 12:01 42.71171 27.41575 26104 ft 410 kts 325°
2026-05-06 12:01 42.73484 27.39301 26095 ft 409 kts 325°
2026-05-06 12:01 42.75792 27.37028 26091 ft 410 kts 325°
2026-05-06 12:01 42.78101 27.34755 26087 ft 410 kts 325°
2026-05-06 12:02 42.80410 27.32479 26082 ft 409 kts 325°
2026-05-06 12:02 42.82723 27.30197 26081 ft 410 kts 325°
2026-05-06 12:02 42.85028 27.27913 26076 ft 410 kts 325°
2026-05-06 12:02 42.87332 27.25624 26072 ft 410 kts 325°
2026-05-06 12:03 42.89641 27.23328 26068 ft 410 kts 325°
2026-05-06 12:03 42.91949 27.21034 26065 ft 410 kts 325°
2026-05-06 12:03 42.94257 27.18745 26062 ft 410 kts 325°
2026-05-06 12:03 42.96563 27.16454 26060 ft 410 kts 325°
2026-05-06 12:04 42.98864 27.14164 26057 ft 410 kts 325°
2026-05-06 12:04 43.01170 27.11869 26051 ft 410 kts 325°
2026-05-06 12:04 43.03473 27.09576 26053 ft 410 kts 325°
2026-05-06 12:04 43.05776 27.07281 26050 ft 410 kts 325°
2026-05-06 12:05 43.08080 27.04983 26047 ft 410 kts 325°
2026-05-06 12:05 43.10356 27.02716 26043 ft 410 kts 325°
2026-05-06 12:05 43.12697 27.00486 26045 ft 410 kts 327°
2026-05-06 12:05 43.15074 26.98320 26044 ft 409 kts 328°
2026-05-06 12:06 43.17463 26.96199 26042 ft 409 kts 328°
2026-05-06 12:06 43.19862 26.94079 26040 ft 409 kts 328°
2026-05-06 12:06 43.22251 26.91955 26041 ft 409 kts 328°
2026-05-06 12:06 43.24630 26.89820 26040 ft 409 kts 327°
2026-05-06 12:07 43.27008 26.87665 26042 ft 409 kts 327°
2026-05-06 12:07 43.29381 26.85501 26039 ft 410 kts 327°
2026-05-06 12:07 43.31750 26.83329 26042 ft 410 kts 327°
2026-05-06 12:07 43.34089 26.81184 26040 ft 410 kts 327°
2026-05-06 12:08 43.36464 26.79004 26037 ft 410 kts 327°
2026-05-06 12:08 43.38834 26.76827 26036 ft 410 kts 327°
2026-05-06 12:08 43.41207 26.74649 26037 ft 410 kts 327°
2026-05-06 12:08 43.43580 26.72471 26034 ft 410 kts 327°
2026-05-06 12:09 43.45958 26.70291 26033 ft 410 kts 327°
2026-05-06 12:09 43.48333 26.68113 26028 ft 410 kts 327°
2026-05-06 12:09 43.50706 26.65936 26027 ft 410 kts 327°
2026-05-06 12:09 43.53080 26.63753 26026 ft 410 kts 327°
2026-05-06 12:10 43.55452 26.61562 26029 ft 410 kts 327°
2026-05-06 12:10 43.57807 26.59385 25810 ft 404 kts 327°
2026-05-06 12:10 43.60108 26.57257 25564 ft 403 kts 327°
2026-05-06 12:10 43.62438 26.55106 25325 ft 402 kts 327°
2026-05-06 12:11 43.64767 26.52958 25078 ft 402 kts 327°
2026-05-06 12:11 43.67095 26.50806 24838 ft 401 kts 327°
2026-05-06 12:11 43.69407 26.48664 24596 ft 400 kts 327°
2026-05-06 12:11 43.71712 26.46523 24360 ft 399 kts 327°
2026-05-06 12:12 43.74014 26.44380 24118 ft 398 kts 327°
2026-05-06 12:12 43.76285 26.42263 23886 ft 402 kts 327°
2026-05-06 12:12 43.78625 26.40082 23648 ft 409 kts 327°
2026-05-06 12:12 43.81001 26.37874 23385 ft 410 kts 327°
2026-05-06 12:13 43.83321 26.35717 23121 ft 394 kts 327°
2026-05-06 12:13 43.85589 26.33603 22838 ft 393 kts 327°
2026-05-06 12:13 43.87860 26.31484 22571 ft 393 kts 327°
2026-05-06 12:13 43.90092 26.29397 22304 ft 382 kts 327°
2026-05-06 12:14 43.92272 26.27354 22038 ft 373 kts 327°
2026-05-06 12:14 43.94388 26.25369 21827 ft 362 kts 327°
2026-05-06 12:14 43.96464 26.23421 21227 ft 362 kts 327°
2026-05-06 12:14 43.98542 26.21470 20815 ft 357 kts 327°
2026-05-06 12:15 44.00572 26.19534 20189 ft 349 kts 327°
2026-05-06 12:15 44.02563 26.17602 19685 ft 350 kts 326°
2026-05-06 12:15 44.04553 26.15657 19175 ft 349 kts 326°
2026-05-06 12:15 44.06509 26.13736 18962 ft 333 kts 326°
2026-05-06 12:16 44.08328 26.11863 18541 ft 321 kts 321°
2026-05-06 12:16 44.09872 26.09697 17842 ft 319 kts 311°
2026-05-06 12:16 44.11145 26.07132 17166 ft 318 kts 301°
2026-05-06 12:16 44.12055 26.04361 16661 ft 318 kts 291°
2026-05-06 12:17 44.12731 26.01427 16152 ft 320 kts 289°
2026-05-06 12:17 44.13405 25.98489 15631 ft 315 kts 289°
2026-05-06 12:17 44.14066 25.95618 15128 ft 310 kts 289°
2026-05-06 12:17 44.14725 25.92768 14628 ft 308 kts 289°
2026-05-06 12:18 44.15377 25.89940 14120 ft 305 kts 289°
2026-05-06 12:18 44.16022 25.87138 13599 ft 303 kts 289°
2026-05-06 12:18 44.16660 25.84353 13075 ft 301 kts 289°
2026-05-06 12:18 44.17299 25.81563 12581 ft 304 kts 289°
2026-05-06 12:19 44.17937 25.78762 12116 ft 299 kts 289°
2026-05-06 12:19 44.18550 25.76058 11830 ft 284 kts 289°
2026-05-06 12:19 44.19128 25.73500 11527 ft 272 kts 289°
2026-05-06 12:19 44.19691 25.71009 11028 ft 268 kts 289°
2026-05-06 12:20 44.20246 25.68547 10573 ft 265 kts 289°
2026-05-06 12:20 44.20801 25.66087 10439 ft 267 kts 289°
2026-05-06 12:20 44.21358 25.63624 10313 ft 266 kts 289°
2026-05-06 12:20 44.21910 25.61189 10191 ft 259 kts 289°
2026-05-06 12:21 44.22446 25.58825 10071 ft 252 kts 289°
2026-05-06 12:21 44.22994 25.56487 9857 ft 256 kts 294°
2026-05-06 12:21 44.23911 25.54352 9457 ft 256 kts 311°
2026-05-06 12:21 44.25206 25.52704 9127 ft 254 kts 327°
2026-05-06 12:22 44.26757 25.51637 8968 ft 244 kts 342°
2026-05-06 12:22 44.28404 25.51185 8480 ft 241 kts 354°
2026-05-06 12:22 44.30071 25.50937 7946 ft 241 kts 353°
2026-05-06 12:22 44.31733 25.50675 7443 ft 240 kts 352°
2026-05-06 12:23 44.33377 25.50413 7129 ft 237 kts 352°
2026-05-06 12:23 44.35038 25.50147 6998 ft 241 kts 352°
2026-05-06 12:23 44.36698 25.49883 6773 ft 239 kts 352°
2026-05-06 12:23 44.38352 25.49622 6567 ft 239 kts 352°
2026-05-06 12:24 44.39972 25.49365 6429 ft 229 kts 352°
2026-05-06 12:24 44.41540 25.49118 6206 ft 226 kts 352°
2026-05-06 12:24 44.43098 25.48872 5965 ft 222 kts 352°
2026-05-06 12:24 44.44623 25.48629 5761 ft 220 kts 352°
2026-05-06 12:25 44.46138 25.48387 5575 ft 219 kts 352°
2026-05-06 12:25 44.47653 25.48145 5430 ft 219 kts 352°
2026-05-06 12:25 44.49166 25.47904 5336 ft 219 kts 352°
2026-05-06 12:25 44.50674 25.47988 5233 ft 220 kts 21°
2026-05-06 12:26 44.51826 25.49374 5095 ft 225 kts 62°
2026-05-06 12:26 44.52232 25.51493 4892 ft 228 kts 81°
2026-05-06 12:26 44.52416 25.53705 4655 ft 228 kts 83°
2026-05-06 12:26 44.52516 25.55908 4443 ft 226 kts 88°
2026-05-06 12:27 44.52592 25.58075 4234 ft 225 kts 85°
2026-05-06 12:27 44.52743 25.60238 4048 ft 222 kts 84°
2026-05-06 12:27 44.52916 25.62391 3864 ft 221 kts 84°
2026-05-06 12:27 44.53089 25.64528 3687 ft 220 kts 84°
2026-05-06 12:28 44.53259 25.66651 3505 ft 218 kts 84°
2026-05-06 12:28 44.53427 25.68751 3326 ft 214 kts 85°
2026-05-06 12:28 44.53590 25.70801 3150 ft 209 kts 85°
2026-05-06 12:28 44.53750 25.72816 2980 ft 206 kts 85°
2026-05-06 12:29 44.53908 25.74798 2817 ft 201 kts 86°
2026-05-06 12:29 44.54058 25.76676 2771 ft 187 kts 86°
2026-05-06 12:29 44.54196 25.78425 2663 ft 173 kts 86°
2026-05-06 12:29 44.54321 25.80009 2585 ft 154 kts 86°
2026-05-06 12:30 44.54432 25.81408 2521 ft 139 kts 86°
2026-05-06 12:30 44.54537 25.82767 2481 ft 142 kts 86°
2026-05-06 12:30 44.54645 25.84147 2476 ft 142 kts 86°
2026-05-06 12:30 44.54751 25.85510 2492 ft 143 kts 85°
2026-05-06 12:31 44.54861 25.86916 2475 ft 145 kts 88°
2026-05-06 12:31 44.54970 25.88313 2488 ft 146 kts 86°
2026-05-06 12:31 44.55079 25.89703 2451 ft 142 kts 88°
2026-05-06 12:31 44.55186 25.91074 2354 ft 143 kts 87°
2026-05-06 12:32 44.55294 25.92467 2226 ft 143 kts 88°
2026-05-06 12:32 44.55399 25.93838 2079 ft 142 kts 89°
2026-05-06 12:32 44.55473 25.95215 1933 ft 141 kts 89°
2026-05-06 12:32 44.55595 25.96585 1779 ft 140 kts 85°
2026-05-06 12:33 44.55715 25.97946 1622 ft 141 kts 87°
2026-05-06 12:33 44.55820 25.99316 1399 ft 140 kts 87°
2026-05-06 12:33 44.55939 26.00669 1248 ft 140 kts 85°
2026-05-06 12:33 44.56041 26.02031 1059 ft 140 kts 87°
2026-05-06 12:34 44.56142 26.03384 856 ft 140 kts 88°
2026-05-06 12:34 44.56245 26.04744 735 ft 139 kts 87°
2026-05-06 12:34 44.56354 26.06099 572 ft 138 kts 87°
2026-05-06 12:34 44.56448 26.07436 400 ft 138 kts 86°
2026-05-06 12:35 44.56545 26.08750 322 ft 128 kts 86°
2026-05-06 12:35 44.56619 26.09764 316 ft 72 kts 79°
2026-05-06 12:35 44.56665 26.10320 318 ft 53 kts 84°
2026-05-06 12:35 44.56686 26.10672 316 ft 21 kts 73°
2026-05-06 12:36 44.56744 26.10759 316 ft 4 kts 341°
2026-05-06 12:36 44.56786 26.10753 316 ft 11 kts 356°
2026-05-06 12:36 44.56895 26.10741 316 ft 18 kts 352°
2026-05-06 12:36 44.57000 26.10686 315 ft 10 kts 318°
2026-05-06 12:37 44.57048 26.10599 316 ft 12 kts 299°
2026-05-06 12:37 44.57062 26.10489 317 ft 0 kts 270°
2026-05-06 12:37 44.57062 26.10472 317 ft 3 kts 270°
2026-05-06 12:37 44.57062 26.10424 317 ft 6 kts 270°
2026-05-06 12:38 44.57057 26.10350 317 ft 9 kts 258°
2026-05-06 12:38 44.57047 26.10252 316 ft 12 kts 262°
2026-05-06 12:38 44.57036 26.10128 317 ft 14 kts 265°
2026-05-06 12:38 44.57028 26.10002 318 ft 11 kts 265°
2026-05-06 12:39 44.57020 26.09886 316 ft 13 kts 265°
2026-05-06 12:39 44.57011 26.09743 318 ft 16 kts 265°
2026-05-06 12:39 44.56998 26.09604 319 ft 12 kts 248°
2026-05-06 12:39 44.56990 26.09532 319 ft 11 kts 263°
2026-05-06 12:40 44.56979 26.09411 319 ft 14 kts 263°
2026-05-06 12:40 44.56967 26.09264 319 ft 17 kts 266°
2026-05-06 12:40 44.56955 26.09091 320 ft 19 kts 262°
2026-05-06 12:40 44.56941 26.08891 320 ft 22 kts 263°
2026-05-06 12:41 44.56925 26.08668 321 ft 19 kts 261°
2026-05-06 12:41 44.56911 26.08550 321 ft 8 kts 254°
2026-05-06 12:41 44.56896 26.08465 321 ft 10 kts 262°
2026-05-06 12:41 44.56933 26.08387 322 ft 11 kts 308°
2026-05-06 12:42 44.56945 26.08280 322 ft 13 kts 263°
2026-05-06 12:42 44.56936 26.08148 322 ft 15 kts 263°
2026-05-06 12:42 44.56949 26.08081 321 ft 6 kts 359°
2026-05-06 12:42 44.56984 26.08082 322 ft 2 kts 356°
2026-05-06 12:43 44.57006 26.08080 322 ft 5 kts 356°
2026-05-06 12:43 44.57016 26.08080 322 ft 2 kts 357°
2026-05-06 12:43 44.57021 26.08079 322 ft 0 kts 357°